Temp
79 79 79 79 80 80 79 80 80 80 80 81 80 81 81 81 82 81 81 80 80 80 80 79 79 78 78 79 79 78 79 78 80 81 79 78 78 77 77 77 76 76
79 79 80 80 80 81 80 81 80 81 81 81 82 81 81 81 81 81 80 79 80 79 80 79 78 78 78 79 78 77 77 77 77 80 78 77 77 77 77 76 75 76
79 79 79 79 79 80 80 80 80 81 81 81 81 81 81 81 79 81 80 79 79 79 77 77 77 77 77 77 77 77 77 77 76 79 78 78 78 77 77 76 75 74
79 79 80 81 81 80 81 80 81 81 82 81 80 81 81 80 80 81 79 77 78 77 76 76 77 76 76 76 76 76 76 77 78 78 77 77 78 78 77 75 75 74
79 80 81 81 81 81 81 80 80 81 81 80 80 80 80 78 78 79 78 76 76 76 75 76 77 75 75 74 75 75 75 76 77 77 77 76 77 77 77 76 75 73
80 82 83 82 81 81 80 81 81 81 80 79 79 80 79 79 79 79 78 76 75 75 75 76 77 76 75 74 74 74 74 74 75 75 75 76 76 78 77 76 75 74
79 80 80 82 81 81 80 81 81 81 81 81 81 79 80 77 79 80 79 78 77 76 77 77 76 75 75 75 74 73 73 74 75 76 75 75 76 76 76 75 75 73
79 80 80 81 80 80 79 81 80 79 80 80 79 80 79 78 80 78 78 78 78 78 77 78 77 77 76 76 75 74 73 74 73 73 74 75 75 75 75 73 73 73
80 79 80 79 79 79 79 79 80 80 81 80 79 79 79 78 77 78 78 77 76 76 78 78 77 76 75 75 75 75 75 74 74 74 73 73 74 75 75 73 71 72
79 78 77 78 78 79 79 79 80 80 80 79 80 79 77 77 77 78 78 77 75 75 76 77 76 75 75 75 75 75 75 74 74 73 73 73 74 75 74 71 70 69
78 78 77 77 78 78 79 79 79 79 79 81 80 79 78 76 75 77 77 77 75 74 74 75 75 75 75 74 74 74 74 74 75 74 73 73 74 74 70 71 69 67
78 78 77 78 78 79 79 79 79 78 79 80 80 79 78 76 75 75 76 76 76 76 76 76 75 75 75 74 74 74 73 74 73 72 71 71 72 72 71 68 67 68
78 78 78 78 78 78 79 79 78 79 80 80 79 78 77 76 76 76 75 76 76 76 76 76 76 76 75 74 74 74 73 72 68 69 68 67 66 66 65 65 66 67
78 78 78 78 78 78 79 79 80 80 79 78 79 78 76 77 77 76 75 75 76 75 75 75 75 74 74 73 72 71 70 69 66 67 67 67 64 62 62 63 65 66
79 79 79 79 78 78 78 79 79 80 79 78 78 77 76 77 77 76 75 74 75 75 75 74 72 71 71 70 70 69 69 68 67 66 65 63 61 60 61 62 63 65
79 79 79 78 78 79 79 79 79 78 77 77 78 78 77 76 76 76 75 75 74 74 74 72 72 72 66 58 61 68 67 67 65 65 66 65 62 61 61 61 61 62
78 77 78 77 78 78 78 78 78 76 76 77 77 76 75 75 74 74 74 74 74 74 72 71 71 69 51 51 51 55 65 66 67 67 69 67 65 65 64 62 62 63
77 77 77 77 78 77 77 77 77 76 76 76 75 74 74 74 73 74 75 75 75 75 73 71 71 52 45 46 48 50 57 67 69 68 69 68 67 67 66 65 65 64
79 78 77 76 77 77 77 76 76 76 76 74 74 74 74 73 73 73 74 75 74 73 72 71 71 45 45 45 47 48 50 62 71 71 69 68 68 69 69 67 66 64
78 77 76 76 76 76 76 76 74 75 74 74 74 72 73 72 72 72 73 73 73 72 69 69 68 48 44 45 46 46 48 56 74 71 69 69 70 70 69 68 68 68
77 76 75 75 76 76 75 74 73 73 73 73 73 72 72 71 71 71 72 72 72 70 68 67 63 44 44 44 44 45 46 53 73 72 72 71 71 71 70 69 69 69
76 76 75 75 75 74 73 72 72 72 72 72 72 72 72 71 71 72 72 72 71 69 68 67 58 42 43 43 44 45 45 69 72 71 71 71 71 71 71 71 72 71
78 76 75 74 74 73 72 72 71 70 71 71 70 70 70 70 71 72 73 72 70 69 68 67 60 46 42 43 44 44 52 74 72 73 72 70 71 71 72 72 71 71
78 78 75 75 74 74 74 72 72 72 71 70 69 68 68 70 72 72 72 72 71 69 69 67 65 51 41 43 44 45 56 73 73 74 71 71 70 71 71 71 68 61
78 77 76 75 76 75 75 73 72 71 70 70 69 69 68 71 73 72 71 71 71 70 62 67 68 56 41 43 44 45 57 74 74 75 71 70 70 69 70 70 67 63
78 78 77 77 76 75 73 72 72 70 68 68 68 68 68 71 74 73 70 70 71 69 66 68 67 63 52 41 45 45 46 70 75 73 71 70 70 69 68 68 67 65
MSLP
1009.63 1009.75 1010.07 1010.39 1010.59 1010.71 1011.15 1011.43 1011.51 1011.75 1011.87 1011.91 1012.27 1012.47 1012.63 1012.67 1012.71 1012.91 1013.19 1013.47 1013.71 1013.75 1013.83 1014.03 1014.19 1014.39 1014.43 1014.47 1014.63 1014.75 1014.79 1014.79 1014.71 1014.67 1014.99 1015.19 1015.39 1015.59 1015.83 1015.99 1016.15 1016.27
1009.39 1009.63 1009.75 1009.99 1010.31 1010.43 1010.79 1010.91 1011.15 1011.31 1011.55 1011.79 1011.99 1012.19 1012.31 1012.47 1012.59 1012.79 1013.19 1013.51 1013.63 1013.79 1013.75 1013.87 1014.15 1014.27 1014.27 1014.35 1014.51 1014.71 1014.71 1014.67 1014.83 1014.59 1014.83 1015.07 1015.19 1015.35 1015.55 1015.75 1015.99 1016.11
1009.15 1009.43 1009.67 1009.99 1010.23 1010.43 1010.63 1010.71 1010.91 1010.99 1011.31 1011.59 1011.79 1011.99 1012.23 1012.27 1012.55 1012.55 1013.07 1013.39 1013.51 1013.51 1013.75 1014.07 1014.19 1014.19 1014.27 1014.39 1014.43 1014.51 1014.55 1014.55 1014.71 1014.51 1014.67 1014.87 1014.91 1015.19 1015.31 1015.47 1015.67 1015.95
1008.95 1009.19 1009.43 1009.63 1009.91 1010.19 1010.27 1010.55 1010.71 1010.91 1011.15 1011.59 1011.83 1011.87 1012.07 1012.23 1012.31 1012.59 1013.07 1013.43 1013.43 1013.59 1013.87 1014.07 1014.07 1014.11 1014.15 1014.27 1014.31 1014.35 1014.39 1014.39 1014.35 1014.39 1014.63 1014.63 1014.75 1014.91 1015.07 1015.23 1015.47 1015.79
1008.67 1008.95 1009.15 1009.39 1009.63 1009.83 1010.03 1010.35 1010.63 1010.87 1011.15 1011.39 1011.59 1011.83 1011.99 1012.27 1012.47 1012.63 1012.99 1013.27 1013.47 1013.63 1013.71 1013.75 1013.75 1013.91 1014.07 1014.19 1014.15 1014.19 1014.19 1014.27 1014.19 1014.31 1014.51 1014.59 1014.55 1014.71 1014.87 1015.07 1015.39 1015.71
1008.31 1008.51 1008.79 1009.11 1009.43 1009.71 1009.99 1010.19 1010.43 1010.79 1011.15 1011.39 1011.63 1011.67 1011.91 1012.07 1012.35 1012.55 1012.83 1013.23 1013.31 1013.35 1013.47 1013.47 1013.47 1013.51 1013.63 1013.87 1013.95 1014.03 1014.11 1014.11 1014.07 1014.19 1014.43 1014.47 1014.51 1014.51 1014.67 1014.91 1015.15 1015.47
1008.23 1008.47 1008.75 1008.87 1009.23 1009.47 1009.79 1009.99 1010.27 1010.67 1010.91 1011.11 1011.31 1011.67 1011.71 1012.11 1012.15 1012.35 1012.63 1012.87 1012.95 1013.07 1013.11 1013.19 1013.27 1013.39 1013.47 1013.59 1013.71 1013.83 1013.87 1013.87 1013.87 1013.99 1014.27 1014.35 1014.39 1014.55 1014.63 1014.83 1015.03 1015.31
1008.07 1008.27 1008.59 1008.83 1009.15 1009.43 1009.71 1009.91 1010.27 1010.63 1010.79 1011.07 1011.51 1011.51 1011.63 1011.99 1012.03 1012.23 1012.63 1012.67 1012.71 1012.83 1012.87 1012.83 1012.91 1013.07 1013.19 1013.31 1013.43 1013.55 1013.63 1013.59 1013.75 1013.83 1014.03 1014.11 1014.31 1014.47 1014.63 1014.79 1015.03 1015.19
1007.75 1008.19 1008.43 1008.83 1009.11 1009.31 1009.67 1009.87 1010.23 1010.47 1010.55 1010.91 1011.27 1011.43 1011.47 1011.71 1011.95 1012.19 1012.35 1012.47 1012.71 1012.71 1012.63 1012.71 1012.79 1012.91 1012.91 1013.03 1013.19 1013.27 1013.39 1013.43 1013.51 1013.71 1013.95 1014.07 1014.19 1014.31 1014.47 1014.63 1015.07 1015.23
1007.83 1008.15 1008.59 1008.79 1009.03 1009.23 1009.55 1009.79 1010.11 1010.35 1010.39 1010.75 1010.91 1011.23 1011.47 1011.67 1011.83 1011.99 1012.07 1012.27 1012.51 1012.67 1012.59 1012.63 1012.71 1012.83 1012.91 1012.99 1013.03 1013.11 1013.19 1013.23 1013.39 1013.63 1013.75 1013.95 1014.03 1014.19 1014.47 1014.71 1015.11 1015.51
1007.71 1008.07 1008.55 1008.71 1008.95 1009.11 1009.39 1009.67 1010.03 1010.19 1010.43 1010.51 1010.75 1011.03 1011.27 1011.63 1011.91 1011.91 1011.99 1012.11 1012.43 1012.63 1012.67 1012.67 1012.71 1012.71 1012.87 1013.03 1013.03 1013.03 1013.07 1013.15 1013.23 1013.39 1013.63 1013.79 1013.91 1014.11 1014.67 1014.95 1015.31 1015.67
1007.51 1007.95 1008.23 1008.47 1008.75 1008.95 1009.15 1009.43 1009.75 1010.11 1010.23 1010.27 1010.55 1010.87 1011.15 1011.47 1011.79 1011.87 1011.91 1012.03 1012.23 1012.35 1012.31 1012.35 1012.51 1012.67 1012.75 1012.91 1012.99 1013.03 1013.11 1013.11 1013.27 1013.51 1013.75 1013.91 1013.99 1014.11 1014.51 1015.07 1015.43 1015.71
1007.43 1007.75 1007.95 1008.35 1008.59 1008.75 1008.91 1009.23 1009.63 1009.75 1009.91 1010.23 1010.39 1010.75 1011.11 1011.43 1011.59 1011.75 1011.83 1011.87 1011.91 1011.99 1012.15 1012.23 1012.31 1012.39 1012.55 1012.75 1012.87 1012.91 1013.03 1013.31 1013.75 1013.91 1014.15 1014.35 1014.51 1014.79 1015.15 1015.31 1015.55 1015.67
1007.15 1007.43 1007.71 1008.07 1008.31 1008.59 1008.71 1008.91 1009.15 1009.39 1009.71 1010.11 1010.23 1010.63 1011.03 1011.19 1011.43 1011.59 1011.87 1011.87 1011.87 1012.03 1012.15 1012.23 1012.35 1012.51 1012.59 1012.75 1012.95 1013.11 1013.31 1013.55 1014.07 1014.19 1014.35 1014.55 1014.91 1015.23 1015.47 1015.75 1015.71 1015.67
1006.91 1007.19 1007.39 1007.79 1008.19 1008.43 1008.63 1008.75 1009.03 1009.23 1009.59 1010.03 1010.31 1010.55 1010.83 1011.03 1011.19 1011.39 1011.79 1011.95 1011.95 1012.03 1012.15 1012.31 1012.51 1012.75 1012.95 1013.07 1013.23 1013.35 1013.55 1013.83 1014.07 1014.35 1014.59 1014.95 1015.35 1015.63 1015.59 1015.79 1015.75 1015.75
1006.71 1007.03 1007.31 1007.63 1007.99 1008.19 1008.39 1008.79 1009.03 1009.39 1009.71 1010.03 1010.19 1010.39 1010.71 1010.95 1011.19 1011.35 1011.63 1011.83 1012.03 1012.15 1012.23 1012.39 1012.59 1012.63 1013.03 1013.31 1013.31 1013.35 1013.79 1013.91 1014.27 1014.43 1014.47 1014.71 1015.19 1015.63 1015.87 1015.99 1015.99 1016.07
1006.71 1007.11 1007.31 1007.63 1007.79 1008.07 1008.43 1008.71 1008.99 1009.47 1009.79 1009.95 1010.15 1010.47 1010.83 1011.07 1011.23 1011.51 1011.63 1011.71 1011.87 1012.07 1012.31 1012.43 1012.59 1012.75 1013.35 1013.59 1013.67 1013.75 1013.83 1014.03 1014.15 1014.23 1014.35 1014.63 1014.95 1015.27 1015.67 1015.99 1016.11 1016.39
1006.63 1006.91 1007.19 1007.47 1007.71 1008.03 1008.39 1008.67 1009.03 1009.39 1009.67 1009.91 1010.19 1010.55 1010.83 1011.03 1011.31 1011.35 1011.39 1011.55 1011.67 1011.83 1012.11 1012.35 1012.55 1013.31 1013.63 1013.79 1013.83 1013.91 1013.91 1013.87 1013.95 1014.27 1014.43 1014.63 1014.91 1015.19 1015.47 1015.79 1016.07 1016.35
1006.39 1006.87 1007.11 1007.51 1007.75 1007.99 1008.27 1008.67 1008.99 1009.27 1009.55 1009.91 1010.23 1010.35 1010.63 1011.03 1011.19 1011.23 1011.39 1011.43 1011.59 1011.79 1012.15 1012.43 1012.75 1013.71 1013.75 1013.87 1013.91 1013.99 1014.03 1013.79 1013.79 1014.07 1014.43 1014.63 1014.91 1015.15 1015.39 1015.75 1016.03 1016.31
1006.35 1006.79 1007.19 1007.47 1007.67 1007.95 1008.27 1008.63 1009.03 1009.27 1009.51 1009.75 1010.07 1010.47 1010.71 1010.95 1011.15 1011.31 1011.39 1011.51 1011.55 1011.83 1012.31 1012.51 1012.91 1013.79 1013.79 1013.95 1014.07 1014.23 1014.11 1013.83 1013.55 1014.11 1014.43 1014.67 1014.91 1015.15 1015.39 1015.67 1015.83 1015.87
1006.47 1006.87 1007.23 1007.51 1007.71 1007.95 1008.31 1008.71 1009.03 1009.31 1009.67 1009.95 1010.19 1010.55 1010.75 1010.95 1011.15 1011.35 1011.39 1011.43 1011.63 1012.03 1012.47 1012.71 1013.19 1013.75 1013.91 1014.07 1014.23 1014.27 1014.19 1013.91 1013.55 1013.87 1014.15 1014.51 1014.79 1014.99 1015.23 1015.51 1015.67 1015.79
1006.35 1006.75 1007.11 1007.43 1007.71 1008.07 1008.47 1008.87 1009.03 1009.23 1009.67 1009.91 1010.15 1010.39 1010.59 1010.75 1010.99 1011.03 1011.27 1011.39 1011.67 1012.15 1012.47 1012.71 1013.63 1014.03 1014.11 1014.27 1014.31 1014.31 1014.23 1013.67 1013.63 1013.91 1014.23 1014.51 1014.83 1015.11 1015.23 1015.39 1015.47 1015.63
1005.99 1006.47 1006.99 1007.35 1007.67 1008.15 1008.51 1008.79 1009.07 1009.43 1009.59 1009.83 1010.27 1010.47 1010.75 1010.99 1011.11 1011.03 1011.11 1011.35 1011.75 1012.11 1012.35 1012.71 1013.63 1014.39 1014.35 1014.35 1014.31 1014.31 1014.03 1013.19 1013.63 1013.75 1014.19 1014.55 1014.83 1015.07 1015.19 1015.39 1015.63 1015.79
1005.95 1006.43 1006.91 1007.23 1007.55 1007.87 1008.19 1008.55 1008.87 1009.23 1009.63 1009.95 1010.23 1010.59 1010.75 1010.83 1010.79 1010.91 1011.11 1011.27 1011.63 1011.99 1012.27 1012.67 1013.19 1014.19 1014.59 1014.43 1014.31 1014.15 1013.59 1013.15 1013.47 1013.51 1014.15 1014.51 1014.79 1015.15 1015.27 1015.59 1015.99 1016.27
1005.95 1006.23 1006.63 1007.03 1007.39 1007.59 1007.95 1008.47 1008.83 1009.19 1009.67 1009.87 1010.15 1010.47 1010.71 1010.67 1010.63 1010.91 1011.23 1011.35 1011.55 1011.87 1012.43 1012.55 1012.87 1013.99 1014.71 1014.47 1014.27 1014.03 1013.75 1013.11 1013.15 1013.39 1014.07 1014.39 1014.79 1015.23 1015.35 1015.59 1016.23 1016.63
1005.79 1006.15 1006.51 1006.91 1007.27 1007.67 1008.07 1008.47 1008.79 1009.27 1009.63 1009.83 1010.19 1010.43 1010.79 1010.63 1010.51 1010.83 1011.31 1011.51 1011.63 1012.03 1012.59 1012.51 1012.83 1013.59 1014.55 1014.67 1014.35 1014.11 1013.79 1013.03 1012.91 1013.35 1013.99 1014.31 1014.55 1014.87 1015.27 1015.63 1016.07 1016.59
Wind_Speed
11 11 11 11 10 9 10 10 9 10 10 9 8 8 8 8 8 8 8 6 7 7 7 7 6 7 7 8 7 6 6 7 8 7 9 8 9 10 9 10 10 8
13 12 10 10 9 8 9 9 9 10 9 8 7 7 7 7 8 8 7 7 7 8 8 9 8 9 9 8 8 7 7 7 8 6 8 10 9 9 9 10 10 8
13 12 12 11 10 10 10 9 9 8 7 6 6 6 6 6 8 8 6 7 7 9 9 8 8 9 9 8 8 8 8 8 9 9 8 10 9 8 8 8 8 10
14 13 11 11 10 11 10 9 9 8 6 6 6 6 6 6 8 8 7 7 8 9 7 8 9 8 8 8 8 8 8 8 8 9 9 8 9 9 8 7 7 7
15 13 12 11 10 10 9 9 9 7 6 6 6 6 6 7 7 7 7 8 8 8 8 9 9 8 9 9 9 9 9 8 8 8 8 9 8 8 7 8 8 8
14 14 12 12 11 10 9 9 9 8 7 7 7 7 7 9 8 9 8 9 8 8 8 8 8 8 8 9 8 8 8 8 8 9 9 9 8 8 7 8 9 9
14 13 13 11 11 11 10 9 8 7 7 7 8 8 8 8 10 9 9 8 8 7 8 8 8 7 6 7 8 8 8 9 8 9 10 9 9 10 8 8 9 9
14 13 13 11 11 11 10 9 8 8 8 8 8 9 8 10 9 6 6 7 8 8 8 8 7 7 7 7 8 8 9 7 8 9 10 10 9 10 9 7 7 9
13 13 12 13 12 11 11 10 9 8 8 8 9 8 8 9 8 8 7 7 7 7 8 7 7 7 7 7 8 8 8 8 7 8 9 10 10 11 10 9 8 8
13 13 13 12 12 10 11 10 8 8 8 8 7 7 8 8 8 8 7 7 7 7 7 7 7 7 7 7 8 8 8 8 8 8 8 9 10 9 9 8 7 6
14 13 14 13 12 11 11 10 9 9 8 8 8 8 8 8 8 7 7 7 7 8 8 8 8 8 8 8 7 7 8 8 7 7 7 8 8 8 7 7 8 7
14 13 13 13 13 12 11 10 10 10 9 8 8 8 9 9 9 8 7 7 7 8 8 8 8 7 7 6 6 7 8 8 6 4 4 4 2 4 7 6 6 6
14 14 12 12 12 11 10 10 10 11 10 8 8 8 8 8 9 8 7 7 7 6 6 6 6 6 6 7 7 7 7 3 3 3 4 4 5 6 7 7 6 4
14 14 13 12 11 10 10 10 11 11 9 9 8 9 8 8 8 8 6 6 5 5 5 4 5 5 5 6 6 6 4 3 5 7 6 7 7 6 5 5 5 6
13 13 12 12 11 11 11 10 10 9 10 10 9 8 7 6 6 6 7 6 6 5 6 5 4 4 4 5 6 6 4 5 6 7 7 7 7 5 5 5 5 5
13 12 11 11 11 11 10 10 9 8 8 9 9 8 7 7 6 7 7 7 7 6 5 4 4 4 4 5 6 4 5 5 7 8 8 8 8 7 5 4 4 4
12 11 11 12 12 10 9 10 10 9 9 10 9 8 8 8 7 8 7 7 7 6 6 4 4 3 9 6 6 9 6 7 8 9 10 8 8 8 7 6 5 5
12 12 12 11 10 11 11 10 9 10 10 10 9 9 9 9 9 8 8 7 6 7 6 5 4 8 10 10 10 11 8 7 8 8 9 7 7 7 6 6 6 6
12 12 12 11 12 12 11 11 11 10 10 10 10 9 9 10 9 8 7 7 7 7 6 5 4 8 11 11 12 11 8 8 9 8 7 7 7 7 7 6 6 6
11 11 11 12 12 10 10 10 10 10 9 9 9 8 9 10 9 9 7 7 6 6 6 5 5 8 11 12 11 10 9 7 8 8 7 7 7 7 7 7 7 7
11 11 11 11 10 11 10 10 10 10 10 9 9 10 10 10 10 9 8 7 7 7 6 6 5 10 10 11 11 11 10 8 8 9 9 9 8 8 7 7 6 5
12 11 11 10 10 10 10 10 10 10 11 9 9 9 8 8 7 7 8 8 8 7 6 7 5 10 10 11 12 11 10 7 9 9 9 9 8 8 8 7 7 6
12 11 11 11 12 11 11 11 11 11 10 9 10 10 10 9 9 7 7 8 9 8 7 7 7 8 10 11 12 12 10 8 10 9 9 9 9 8 7 6 5 4
10 12 12 12 12 13 12 11 9 9 10 9 10 10 9 10 9 7 7 9 9 9 7 8 8 9 11 12 13 15 11 9 9 9 9 9 9 8 6 5 5 8
11 11 11 10 11 10 10 11 10 9 9 9 9 9 9 9 8 8 8 7 8 8 8 9 10 10 11 12 14 15 10 9 9 9 10 10 9 8 6 5 7 5
9 9 10 10 11 11 11 9 9 10 10 9 8 8 8 8 8 8 9 7 7 9 7 8 10 9 10 12 13 13 14 7 9 9 10 10 9 9 7 7 7 6
Wind_Direction
192 192 191 193 192 189 184 184 186 185 190 189 183 176 183 190 197 200 196 182 206 226 224 218 213 218 219 217 217 226 235 241 238 225 219 209 212 213 214 209 207 206
193 193 192 191 189 188 184 188 185 187 187 183 180 177 183 189 200 201 179 184 207 222 224 220 215 220 222 224 219 223 230 230 236 232 227 219 217 210 212 211 209 203
194 192 191 190 188 188 185 191 192 192 184 175 168 171 174 188 193 201 175 190 203 221 221 224 227 227 223 224 225 229 234 229 231 228 225 229 230 227 212 207 203 199
196 193 190 189 188 187 188 191 193 189 172 163 170 171 167 189 198 197 173 193 218 222 222 226 228 228 226 227 231 232 232 232 232 231 227 229 224 222 210 192 193 194
195 192 190 190 189 189 189 193 193 182 167 162 160 171 173 175 188 190 183 195 209 216 220 225 225 223 223 228 228 229 227 226 227 230 226 227 220 212 201 194 192 192
194 193 191 191 191 190 192 197 193 181 164 166 172 175 180 193 206 206 194 194 205 213 218 221 219 219 216 221 223 226 229 230 227 226 231 231 220 209 195 196 194 192
194 192 190 191 189 188 195 197 189 176 176 178 167 182 180 194 206 205 201 200 210 219 219 216 223 224 223 224 221 222 224 225 225 222 225 226 219 211 199 196 196 193
191 191 189 193 188 191 196 196 184 176 183 170 175 182 176 187 200 206 200 200 208 214 221 224 223 225 223 224 222 218 220 219 221 219 224 224 219 215 200 189 195 197
190 190 190 190 191 191 195 195 181 178 187 179 176 170 175 179 193 202 203 199 204 218 228 228 224 225 227 221 227 226 223 221 221 220 220 222 217 217 202 182 187 189
190 190 190 189 190 191 195 191 180 177 186 178 171 163 170 172 189 206 212 203 201 213 228 230 226 223 224 228 229 229 227 226 219 224 223 219 222 218 207 186 175 162
191 188 191 185 189 193 195 185 182 178 187 178 164 166 161 166 188 211 209 201 198 205 219 228 231 227 222 219 225 233 237 237 229 226 223 221 221 207 188 176 165 144
188 189 189 188 192 195 195 185 183 182 183 173 167 166 163 166 184 200 206 204 206 208 218 221 220 225 226 228 234 232 229 234 238 220 232 222 218 161 156 148 127 150
189 189 186 186 192 195 191 187 186 185 177 168 163 160 164 171 181 191 204 213 211 212 214 222 223 226 227 229 232 234 238 192 92 159 171 125 112 112 100 108 130 138
190 187 185 186 188 187 192 187 184 181 168 156 166 157 168 179 188 178 184 211 199 206 210 220 222 226 235 241 245 252 264 164 174 184 187 169 125 110 117 133 148 140
188 186 186 184 174 187 189 186 180 176 164 160 166 162 164 171 174 175 173 192 187 188 196 193 214 221 227 226 219 217 197 186 174 170 150 124 109 117 123 135 130 120
185 182 183 181 181 187 183 178 169 155 160 162 167 160 161 169 170 168 172 180 176 177 182 192 202 212 88 23 338 157 173 167 154 163 156 150 136 126 118 128 126 112
178 177 179 179 181 175 170 172 165 163 167 166 158 157 163 163 164 169 169 174 176 173 177 175 194 107 102 139 123 132 162 168 175 171 164 147 141 144 149 145 137 139
176 173 178 174 175 173 173 173 168 169 167 162 157 158 162 161 164 170 169 174 176 173 168 174 151 98 128 134 139 150 170 171 160 156 161 148 150 154 149 146 151 156
167 174 174 169 173 171 169 172 171 171 162 159 160 163 161 164 166 171 173 172 176 168 160 166 148 127 139 144 151 156 160 176 154 156 156 147 152 154 155 160 161 163
162 169 167 170 169 168 164 165 168 168 161 160 157 156 167 164 165 167 171 173 168 146 157 162 131 145 142 146 148 146 164 212 147 157 150 152 159 162 171 174 178 176
160 167 171 168 171 168 162 164 169 161 157 159 163 169 168 166 165 169 169 167 153 153 150 157 125 145 146 150 152 158 171 229 153 159 156 158 163 163 169 175 175 177
173 175 168 174 166 161 163 163 168 160 160 162 168 169 164 162 171 172 168 164 156 151 158 150 126 153 152 159 158 164 189 194 154 156 156 159 163 166 169 170 175 181
175 172 166 172 169 169 171 169 164 160 165 162 163 163 160 160 177 174 169 162 155 159 163 152 137 171 166 164 165 172 203 166 157 161 158 161 164 165 169 160 165 175
165 172 173 173 173 177 176 168 165 165 164 165 159 156 160 169 178 168 165 164 162 162 163 160 155 161 178 173 173 184 217 163 169 165 164 166 161 165 159 154 83 38
173 170 166 170 172 175 170 169 172 167 161 164 159 157 158 175 180 156 159 160 166 155 148 168 167 166 184 185 183 189 220 170 180 168 175 170 164 159 157 144 130 85
159 162 164 171 172 168 171 167 166 163 160 160 155 154 163 180 181 157 162 159 156 145 159 176 169 173 185 195 191 195 229 217 170 175 177 166 166 158 158 150 142 126